Weather in Vladimirskyy Tupik

Russia / Smolensk Oblast     55°41′34″N   33°18′19″E
temp.,
°C
wind,
m/s
gust,
m/s
humid.,
%
clouds,
%
prec.,
mm/h
press.,
hPa
HPBL,
m
19 january, wed
wed1900:00−12wnw3998100 0.0 1021169
03:00−15w27100100 0.0 1022101
06:00−11wsw2697100 0.0 1020106
09:00−9sw399562 0.0 1018212
12:00−5sw3119593 0.1 1015387
15:00−3wsw4893100 0.3 1014527
18:00−3sw3996100 0.2 1012432
21:00−2sw41195100 0.3 1010466
20 january, thu
thu2000:00−1sw51296100 0.1 1008561
03:00−2sw51197100 0.1 1007538
06:00−2ssw51197100 0.0 1004489
09:00−2ssw51396100 0.0 1002509
12:00−2s61494100 0.0 1000655
15:00−1s61493100 0.1 998820
18:00−2s61296100 0.3 9961075
21:00−3ssw51296100 1.6 996900
21 january, fri
fri2100:00−4ssw51190100 0.4 997702
03:00−6s5119296 0.5 998577
06:00−6s5129399 0.1 998622
09:00−9sse41295100 0.1 999436
12:00−6sse51090100 0.1 998635
15:00−5se4991100 0.3 998821
18:00−6se41093100 0.1 998420
21:00−7ese3895100 0.3 999318
22 january, sat
sat2200:00−9e3797100 0.0 1001168
03:00−12e279886 0.1 1003110
06:00−13ene389891 0.0 1005136
09:00−14ene289881 0.1 1008133
12:00−9ene389496 0.0 1010261
15:00−7ne3693100 0.1 1012391
18:00−11ne279784 0.1 1015178
21:00−11ne289775 0.1 1018181
23 january, sun
sun2300:00−13ne279882 0.0 1020123
03:00−13ene279989 0.1 1023119
06:00−15ene259989 0.0 102577
09:00−17ene269990 0.1 102896
12:00−11e239480 0.0 1030148
15:00−9nne129399 0.0 1031222
18:00−15ne1110088 0.0 10339
21:00−16ne119961 0.0 10349